Snowfall_Accumulation
0.0 0.0 0.0 0.0 0.0 0.0 0.0 0.0 0.6 0.0 0.2 0.3 0.0 0.3 0.1 0.0 0.0 0.1 0.4 0.3 0.0 0.8 1.2 0.6 1.9 1.1 1.4 1.0 0.5 0.6 0.2 0.3 0.3 0.0 0.1 0.2 0.2 0.5 1.0 0.8 0.5 0.4 0.8 0.7
0.4 0.0 0.0 0.0 0.0 0.0 0.0 0.1 0.1 0.0 0.3 0.1 0.0 0.0 0.0 0.0 0.0 0.0 0.1 0.0 0.0 0.0 0.0 0.0 0.2 0.2 0.1 0.3 0.1 0.0 0.1 0.0 0.1 0.0 0.0 0.1 0.1 0.1 0.1 0.8 0.8 0.7 0.5 0.4
0.8 0.0 0.1 0.1 0.2 0.0 1.3 1.9 2.1 0.8 0.8 0.0 0.0 0.0 0.3 0.0 0.0 0.0 0.0 0.0 0.0 0.0 0.0 0.0 0.0 0.0 0.1 0.0 0.0 0.0 0.0 0.0 0.0 0.0 0.0 0.0 0.0 0.0 0.0 0.0 0.1 1.0 1.2 0.9
2.7 0.2 3.2 0.1 0.0 0.0 1.4 0.9 0.0 0.1 0.0 0.0 0.0 0.2 0.3 0.1 0.0 0.0 0.0 0.0 0.0 0.0 0.0 0.0 0.0 0.0 0.0 0.0 0.0 0.0 0.0 0.0 0.0 0.0 0.0 0.0 0.0 0.0 0.0 0.0 0.0 0.0 0.1 0.2
4.5 2.3 0.0 0.4 0.0 0.3 1.1 1.1 0.3 0.4 0.1 0.0 0.0 0.3 1.3 0.0 0.0 0.0 0.0 0.0 0.0 0.0 0.0 0.0 0.0 0.0 0.0 0.0 0.0 0.0 0.0 0.0 0.0 0.0 0.0 0.0 0.0 0.0 0.0 0.0 0.0 0.0 0.0 0.0
3.7 5.8 2.8 1.6 0.3 0.0 0.0 4.4 1.5 0.5 0.2 0.2 0.0 0.5 0.9 0.1 0.0 0.0 0.0 0.0 0.0 0.0 0.0 0.0 0.0 0.0 0.0 0.0 0.0 0.0 0.0 0.0 0.0 0.0 0.0 0.0 0.0 0.0 0.0 0.0 0.0 0.0 0.0 0.0
5.2 11.8 4.6 1.0 0.0 0.0 1.6 7.1 1.0 0.7 1.4 2.9 2.6 2.4 0.7 0.1 0.0 0.0 0.0 0.0 0.0 0.0 0.0 0.0 0.0 0.0 0.0 0.0 0.0 0.0 0.0 0.0 0.0 0.0 0.0 0.0 0.0 0.0 0.0 0.0 0.0 0.1 0.1 0.0
9.1 9.8 9.9 0.5 0.0 3.4 3.0 0.9 1.3 1.6 2.2 4.9 1.4 0.2 0.0 0.0 0.0 0.0 0.0 0.0 0.0 0.0 0.0 0.0 0.0 0.0 0.0 0.0 0.0 0.0 0.0 0.0 0.0 0.0 0.0 0.0 0.0 0.0 0.0 0.1 0.1 0.0 0.2 0.2
6.9 6.5 2.0 1.2 1.8 1.6 1.6 2.1 2.1 1.9 1.2 0.2 0.2 0.0 0.0 0.0 0.0 0.0 0.0 0.0 0.0 0.0 0.0 0.0 0.0 0.0 0.0 0.0 0.0 0.0 0.0 0.0 0.0 0.0 0.0 0.0 0.0 0.0 0.0 0.1 0.1 0.2 0.4 0.4
5.7 3.2 1.2 2.1 0.8 0.9 1.2 1.5 0.5 0.0 0.0 0.0 0.0 0.0 0.0 0.0 0.0 0.0 0.0 0.0 0.0 0.0 0.0 0.0 0.0 0.0 0.0 0.0 0.0 0.0 0.0 0.0 0.1 0.1 0.0 0.0 0.1 0.1 0.0 0.5 0.6 0.7 1.8 2.8
7.7 5.9 0.8 0.9 1.5 1.8 0.8 0.3 0.3 0.0 0.0 0.0 0.0 0.0 0.0 0.0 0.0 0.0 0.0 0.0 0.0 0.1 0.0 0.0 0.0 0.0 0.0 0.0 0.1 0.1 0.2 0.0 1.2 0.1 0.3 0.1 0.0 0.1 0.3 1.7 2.7 3.8 4.1 6.4
10.8 5.4 6.3 4.4 5.5 1.8 1.1 0.2 0.0 0.0 0.0 0.0 0.0 0.0 0.0 0.0 0.1 0.1 0.0 0.0 0.0 0.0 0.1 0.1 0.0 0.1 0.3 0.3 0.4 0.7 1.7 2.3 5.1 3.0 8.1 6.0 5.9 6.8 5.6 5.2 5.3 9.3 12.2 13.6
2.2 1.8 1.6 1.6 0.0 0.0 0.4 1.1 0.7 0.0 0.2 0.0 0.0 0.0 0.0 0.1 0.1 0.7 0.7 0.5 0.9 0.6 0.7 0.5 0.4 0.3 0.5 0.5 0.9 1.0 2.0 2.6 4.7 7.2 10.6 13.4 15.7 12.0 13.1 14.8 14.3 15.1 12.0 10.9
0.0 0.0 0.0 0.0 0.3 0.0 0.0 0.0 0.4 0.0 0.0 0.0 0.0 0.0 0.0 0.1 1.3 3.0 3.6 4.2 3.4 1.5 1.6 1.0 0.5 1.5 4.8 4.4 5.3 6.0 6.2 9.8 11.3 14.1 19.2 21.4 21.0 22.9 22.7 19.3 14.8 17.5 17.9 19.0
0.0 0.0 0.1 0.0 0.0 0.0 0.0 0.0 0.0 0.0 0.0 0.0 0.0 0.0 0.0 0.6 2.5 3.2 9.6 11.0 8.3 10.9 14.2 12.9 12.2 18.1 17.6 15.6 16.3 17.8 15.5 17.6 18.4 20.9 20.7 21.7 23.3 23.3 21.9 21.0 20.4 19.2 19.0 17.1
0.0 0.0 0.0 0.0 0.0 0.0 0.0 0.0 0.0 0.0 0.0 0.0 0.0 0.0 0.0 1.4 3.3 3.9 6.2 10.6 12.4 17.7 21.9 21.5 22.8 24.5 19.8 17.5 15.3 15.6 15.5 14.5 12.2 12.2 15.3 17.8 18.2 18.8 20.1 20.1 19.8 20.5 20.3 21.3
0.0 0.0 0.0 0.0 0.0 0.0 0.0 0.0 0.0 0.0 0.0 0.0 0.1 0.1 0.2 0.5 2.1 5.2 10.2 11.9 14.6 17.1 18.4 16.4 17.2 13.2 10.6 10.0 9.2 8.9 9.3 9.3 8.9 8.7 9.1 10.3 13.2 14.9 16.5 16.6 17.3 18.5 19.8 20.0
0.0 0.0 0.0 0.1 0.0 0.0 0.0 0.0 0.0 0.0 0.1 0.2 0.5 0.8 1.9 4.2 8.1 13.4 18.1 18.4 12.8 11.1 12.6 12.2 9.2 6.9 6.2 6.6 5.7 5.2 5.4 5.4 6.5 7.9 7.4 8.3 10.5 11.2 11.0 11.0 11.9 12.4 14.2 15.3
0.0 0.0 0.0 0.0 0.0 0.0 0.0 0.1 0.3 0.2 1.6 2.2 3.8 7.3 9.2 11.7 11.7 11.1 11.0 11.2 11.7 9.7 11.0 6.7 4.9 4.0 3.6 3.9 3.2 3.7 3.9 4.4 4.3 4.9 5.5 5.5 6.9 8.0 10.2 9.3 9.4 10.2 11.2 12.1
0.0 0.0 0.0 0.0 0.0 0.0 0.4 1.2 1.8 3.1 4.7 4.8 5.3 7.3 7.5 8.9 7.9 8.2 7.1 7.8 7.0 6.3 4.0 4.3 3.4 3.4 2.9 2.2 1.3 1.5 2.0 2.6 3.4 4.4 5.3 5.8 7.2 7.7 7.9 6.6 8.3 9.0 9.3 10.3
0.0 0.1 0.0 0.1 0.8 1.6 2.5 4.1 3.9 5.6 8.2 6.8 5.4 7.2 8.9 12.0 11.0 9.7 7.3 4.5 5.5 3.8 3.4 2.9 2.1 1.9 0.9 1.1 1.2 1.6 2.6 3.1 3.5 5.1 5.2 5.4 5.5 5.7 5.7 6.3 7.1 6.8 8.6 9.0
4.7 5.6 4.7 4.3 4.5 6.4 7.7 7.5 5.9 6.6 7.1 8.1 9.4 9.3 9.1 11.1 10.5 8.8 6.6 5.6 4.9 3.7 3.0 2.6 1.8 1.6 1.2 1.3 1.8 2.5 2.5 2.8 2.7 2.7 3.2 4.0 4.5 5.0 5.0 5.3 6.3 6.2 6.4 6.7
9.4 10.3 11.0 9.9 9.0 10.3 11.4 10.4 10.6 8.9 9.8 10.0 9.7 9.7 8.3 9.3 7.5 5.5 5.1 4.2 2.8 2.8 2.4 2.1 1.7 1.6 1.5 2.5 3.2 3.2 3.5 2.6 2.8 2.9 3.4 3.4 4.0 4.4 4.4 4.2 5.0 5.2 5.7 5.3
10.4 9.5 10.7 10.6 9.1 6.7 8.5 11.5 9.8 9.7 8.8 10.2 9.1 8.5 6.7 6.2 6.4 4.6 3.4 3.2 2.8 2.6 2.1 2.4 1.8 1.6 1.9 2.9 3.1 2.6 3.2 2.5 2.3 2.5 2.3 1.6 3.0 2.6 2.9 3.2 3.3 3.1 3.4 3.6
9.0 8.0 7.6 7.8 7.4 8.7 7.8 8.0 7.3 8.6 8.2 10.1 9.0 7.4 5.4 3.8 3.1 4.7 3.1 3.8 2.9 2.2 2.6 2.4 1.5 1.7 2.4 3.1 2.9 2.3 3.0 2.6 2.1 2.9 3.2 2.8 2.5 2.5 2.5 2.3 2.3 2.4 2.0 2.2
8.8 8.8 8.0 7.2 7.4 7.1 6.5 6.4 7.4 9.4 8.1 8.6 8.1 6.5 5.7 4.5 4.2 3.5 2.8 2.4 1.5 1.6 2.6 3.3 2.5 2.1 2.8 2.7 2.7 2.3 2.6 2.3 2.0 2.3 2.6 2.4 2.3 2.3 2.0 2.2 2.0 1.8 1.8 1.6
8.0 7.2 5.5 6.0 6.6 6.5 6.2 6.4 6.3 7.7 7.2 6.7 7.6 6.0 5.0 4.9 4.6 4.2 3.0 3.2 3.1 3.1 3.3 3.2 2.8 2.2 1.8 2.3 2.9 2.7 2.4 2.1 1.1 1.8 1.7 2.2 2.5 2.6 2.6 2.9 2.9 2.7 2.6 3.0